Location: Madrid
(40.4000°N, 3.6830°W)
Time: 04:13:14
(UTC+01:00)

ISS - Pass Details

Date: 10 November 2019
Orbit: 412 x 421 km, 51.6° (Epoch: 12 November)

Event Time Altitude Azimuth Distance (km) Brightness Sun altitude
Exits shadow 06:33:47 26° 325° (NW) 867 -2.6 -15.6°
Maximum altitude 06:35:25 55° 33° (NNE) 511 -3.3 -15.3°
Drops below altitude 10° 06:38:44 10° 113° (ESE) 1,495 0.4 -14.7°
Sets 06:40:50 0° 117° (ESE) 2,354 1.6 -14.3°
